SHT21B EGJB-EGLL

Flight info

Callsign SHT21B
Flight time 0h 34m
Altitude 19000
Route ORIST1F ORIST L982 ROXOG ROXOG1H
Aircraft A319/M-SDE2E3FGHIJ1RWXY/S

Departure

Time 2026-04-23 12:58
Airport Guernsey Airport (EGJB)

Arrival

Time 2026-04-23 13:32
Airport London Heathrow Airport (EGLL)
Time Latitude Longitude Altitude Speed Heading
2026-04-23 12:08 49.43254 -2.59684 325 ft 0 kts 177°
2026-04-23 12:50 49.43275 -2.59686 328 ft 4 kts 176°
2026-04-23 12:50 49.43302 -2.59688 328 ft 4 kts 179°
2026-04-23 12:50 49.43328 -2.59685 328 ft 4 kts 198°
2026-04-23 12:51 49.43350 -2.59667 329 ft 4 kts 227°
2026-04-23 12:51 49.43361 -2.59633 330 ft 4 kts 264°
2026-04-23 12:51 49.43362 -2.59616 330 ft 0 kts 267°
2026-04-23 12:54 49.43362 -2.59623 330 ft 3 kts 267°
2026-04-23 12:54 49.43360 -2.59674 329 ft 7 kts 268°
2026-04-23 12:55 49.43348 -2.59782 326 ft 13 kts 259°
2026-04-23 12:55 49.43342 -2.59959 317 ft 22 kts 267°
2026-04-23 12:55 49.43333 -2.60234 298 ft 21 kts 267°
2026-04-23 12:55 49.43329 -2.60423 295 ft 19 kts 268°
2026-04-23 12:56 49.43330 -2.60636 295 ft 20 kts 278°
2026-04-23 12:56 49.43354 -2.60835 304 ft 17 kts 281°
2026-04-23 12:56 49.43364 -2.60990 311 ft 13 kts 267°
2026-04-23 12:56 49.43359 -2.61144 312 ft 15 kts 267°
2026-04-23 12:57 49.43383 -2.61295 315 ft 15 kts 313°
2026-04-23 12:57 49.43457 -2.61354 316 ft 5 kts 22°
2026-04-23 12:57 49.43468 -2.61230 315 ft 36 kts 87°
2026-04-23 12:57 49.43492 -2.60397 315 ft 118 kts 87°
2026-04-23 12:58 49.43524 -2.59113 972 ft 118 kts 87°
2026-04-23 12:58 49.43560 -2.57852 1843 ft 115 kts 91°
2026-04-23 12:58 49.43595 -2.56636 2524 ft 114 kts 94°
2026-04-23 12:58 49.43620 -2.55354 2953 ft 132 kts 96°
2026-04-23 12:59 49.43651 -2.53825 3381 ft 155 kts 94°
2026-04-23 12:59 49.43692 -2.52030 3748 ft 183 kts 93°
2026-04-23 12:59 49.43849 -2.49995 4420 ft 202 kts 76°
2026-04-23 12:59 49.44821 -2.48298 5234 ft 230 kts 34°
2026-04-23 13:00 49.46341 -2.47451 6271 ft 235 kts 20°
2026-04-23 13:00 49.47955 -2.46919 7248 ft 239 kts 17°
2026-04-23 13:00 49.49670 -2.46428 7825 ft 263 kts 15°
2026-04-23 13:00 49.51542 -2.45872 8429 ft 282 kts 16°
2026-04-23 13:01 49.53324 -2.45306 9275 ft 287 kts 17°
2026-04-23 13:01 49.55286 -2.44638 10282 ft 290 kts 18°
2026-04-23 13:01 49.57262 -2.43926 11201 ft 293 kts 18°
2026-04-23 13:01 49.59246 -2.43031 11802 ft 305 kts 29°
2026-04-23 13:02 49.61029 -2.41068 12158 ft 320 kts 46°
2026-04-23 13:02 49.62662 -2.38735 12863 ft 327 kts 46°
2026-04-23 13:02 49.63788 -2.37109 13418 ft 330 kts 46°
2026-04-23 13:02 49.66018 -2.33878 14490 ft 334 kts 46°
2026-04-23 13:03 49.67163 -2.32219 14974 ft 336 kts 46°
2026-04-23 13:03 49.68880 -2.29737 15672 ft 341 kts 45°
2026-04-23 13:03 49.70624 -2.27226 16386 ft 344 kts 45°
2026-04-23 13:03 49.72388 -2.24687 17087 ft 349 kts 44°
2026-04-23 13:04 49.74162 -2.22129 17917 ft 348 kts 44°
2026-04-23 13:04 49.75940 -2.19566 18681 ft 351 kts 44°
2026-04-23 13:04 49.77735 -2.16976 19153 ft 355 kts 43°
2026-04-23 13:04 49.79576 -2.14311 19298 ft 372 kts 43°
2026-04-23 13:05 49.81498 -2.11519 19329 ft 382 kts 43°
2026-04-23 13:05 49.83436 -2.08703 19331 ft 383 kts 43°
2026-04-23 13:05 49.85380 -2.05873 19331 ft 385 kts 43°
2026-04-23 13:05 49.87330 -2.03033 19335 ft 385 kts 43°
2026-04-23 13:06 49.91361 -1.97147 19343 ft 406 kts 43°
2026-04-23 13:06 49.93421 -1.94135 19354 ft 409 kts 43°
2026-04-23 13:06 49.95491 -1.91106 19352 ft 408 kts 43°
2026-04-23 13:07 49.97560 -1.88079 19359 ft 410 kts 44°
2026-04-23 13:07 49.99680 -1.85125 19353 ft 409 kts 38°
2026-04-23 13:07 50.02115 -1.82819 19359 ft 412 kts 28°
2026-04-23 13:07 50.04664 -1.80822 19373 ft 410 kts 28°
2026-04-23 13:08 50.07207 -1.78824 19371 ft 409 kts 28°
2026-04-23 13:08 50.09746 -1.76817 19377 ft 409 kts 28°
2026-04-23 13:08 50.12250 -1.74712 19373 ft 409 kts 33°
2026-04-23 13:08 50.14494 -1.72004 19381 ft 408 kts 40°
2026-04-23 13:09 50.16674 -1.69165 19386 ft 408 kts 40°
2026-04-23 13:09 50.18852 -1.66328 19377 ft 408 kts 40°
2026-04-23 13:09 50.21029 -1.63487 19383 ft 408 kts 40°
2026-04-23 13:09 50.23209 -1.60644 19391 ft 408 kts 40°
2026-04-23 13:10 50.25412 -1.57847 19388 ft 408 kts 36°
2026-04-23 13:10 50.27884 -1.55678 19387 ft 410 kts 24°
2026-04-23 13:10 50.30598 -1.54264 19397 ft 411 kts 19°
2026-04-23 13:10 50.33336 -1.52945 19392 ft 411 kts 19°
2026-04-23 13:11 50.36070 -1.51616 19405 ft 411 kts 19°
2026-04-23 13:11 50.38802 -1.50281 19395 ft 411 kts 19°
2026-04-23 13:11 50.41534 -1.48941 19404 ft 411 kts 19°
2026-04-23 13:11 50.44266 -1.47598 19396 ft 411 kts 19°
2026-04-23 13:12 50.46999 -1.46251 19391 ft 412 kts 19°
2026-04-23 13:12 50.49734 -1.44899 19390 ft 412 kts 19°
2026-04-23 13:12 50.52463 -1.43545 19397 ft 412 kts 20°
2026-04-23 13:12 50.55086 -1.41783 19395 ft 410 kts 30°
2026-04-23 13:13 50.57591 -1.39628 19401 ft 410 kts 30°
2026-04-23 13:13 50.60093 -1.37475 19407 ft 410 kts 30°
2026-04-23 13:13 50.62592 -1.35327 19406 ft 410 kts 30°
2026-04-23 13:13 50.65102 -1.33170 19393 ft 411 kts 30°
2026-04-23 13:14 50.67311 -1.31270 19395 ft 411 kts 30°
2026-04-23 13:14 50.69830 -1.29107 19397 ft 411 kts 30°
2026-04-23 13:14 50.72337 -1.26951 19398 ft 411 kts 30°
2026-04-23 13:14 50.74849 -1.24784 19400 ft 411 kts 30°
2026-04-23 13:15 50.77315 -1.22598 19246 ft 398 kts 32°
2026-04-23 13:15 50.79613 -1.20364 19128 ft 379 kts 34°
2026-04-23 13:15 50.81781 -1.18117 18769 ft 368 kts 35°
2026-04-23 13:15 50.83894 -1.15862 18130 ft 365 kts 36°
2026-04-23 13:16 50.85977 -1.13627 17410 ft 360 kts 36°
2026-04-23 13:16 50.88051 -1.11419 16668 ft 359 kts 36°
2026-04-23 13:16 50.90116 -1.09247 16122 ft 353 kts 36°
2026-04-23 13:16 50.92153 -1.07126 15598 ft 347 kts 36°
2026-04-23 13:17 50.94156 -1.05049 15076 ft 342 kts 36°
2026-04-23 13:17 50.96131 -1.03004 14567 ft 337 kts 36°
2026-04-23 13:17 50.98082 -1.00986 14044 ft 332 kts 36°
2026-04-23 13:17 50.99992 -0.98959 13519 ft 327 kts 40°
2026-04-23 13:18 51.01625 -0.96523 13113 ft 320 kts 51°
2026-04-23 13:18 51.03092 -0.93885 12746 ft 318 kts 50°
2026-04-23 13:18 51.04560 -0.91264 12365 ft 316 kts 50°
2026-04-23 13:18 51.06021 -0.88670 11990 ft 314 kts 50°
2026-04-23 13:19 51.07477 -0.86090 11618 ft 313 kts 50°
2026-04-23 13:19 51.08929 -0.83513 11246 ft 312 kts 50°
2026-04-23 13:19 51.10372 -0.80945 10875 ft 310 kts 50°
2026-04-23 13:19 51.11781 -0.78430 10714 ft 298 kts 50°
2026-04-23 13:20 51.13131 -0.76021 10594 ft 285 kts 50°
2026-04-23 13:20 51.14430 -0.73699 10417 ft 277 kts 50°
2026-04-23 13:20 51.15913 -0.71748 10306 ft 280 kts 29°
2026-04-23 13:20 51.17803 -0.71005 9988 ft 285 kts
2026-04-23 13:21 51.19745 -0.71703 9616 ft 292 kts 337°
2026-04-23 13:21 51.21519 -0.73288 9232 ft 293 kts 331°
2026-04-23 13:21 51.23258 -0.74995 8836 ft 293 kts 331°
2026-04-23 13:21 51.24984 -0.76704 8470 ft 292 kts 331°
2026-04-23 13:22 51.26701 -0.78424 8114 ft 291 kts 331°
2026-04-23 13:22 51.28413 -0.80136 7787 ft 289 kts 331°
2026-04-23 13:22 51.30112 -0.81830 7546 ft 284 kts 331°
2026-04-23 13:22 51.31734 -0.83444 7538 ft 265 kts 331°
2026-04-23 13:23 51.33246 -0.84953 7538 ft 248 kts 331°
2026-04-23 13:23 51.34650 -0.86387 7460 ft 231 kts 331°
2026-04-23 13:23 51.35969 -0.87732 7324 ft 219 kts 331°
2026-04-23 13:23 51.37231 -0.89042 7052 ft 214 kts 330°
2026-04-23 13:24 51.38477 -0.90319 6760 ft 212 kts 331°
2026-04-23 13:24 51.39718 -0.91578 6416 ft 211 kts 332°
2026-04-23 13:24 51.41065 -0.92290 6095 ft 200 kts
2026-04-23 13:24 51.42311 -0.91623 5719 ft 186 kts 45°
2026-04-23 13:25 51.43153 -0.90067 5350 ft 181 kts 59°
2026-04-23 13:25 51.43852 -0.88438 5006 ft 181 kts 61°
2026-04-23 13:25 51.44558 -0.86730 4658 ft 181 kts 61°
2026-04-23 13:25 51.45245 -0.85052 4341 ft 180 kts 61°
2026-04-23 13:26 51.45918 -0.83413 4168 ft 178 kts 61°
2026-04-23 13:26 51.46602 -0.81732 3990 ft 177 kts 61°
2026-04-23 13:26 51.47268 -0.80067 3814 ft 177 kts 64°
2026-04-23 13:26 51.47590 -0.78222 3677 ft 172 kts 89°
2026-04-23 13:27 51.47605 -0.76314 3491 ft 170 kts 91°
2026-04-23 13:27 51.47614 -0.74429 3274 ft 169 kts 91°
2026-04-23 13:27 51.47625 -0.72547 3058 ft 169 kts 90°
2026-04-23 13:27 51.47637 -0.70665 2831 ft 168 kts 90°
2026-04-23 13:28 51.47648 -0.68784 2606 ft 170 kts 89°
2026-04-23 13:28 51.47659 -0.66920 2383 ft 165 kts 89°
2026-04-23 13:28 51.47669 -0.65074 2149 ft 166 kts 88°
2026-04-23 13:28 51.47678 -0.63271 1923 ft 157 kts 88°
2026-04-23 13:29 51.47687 -0.61584 1714 ft 148 kts 88°
2026-04-23 13:29 51.47695 -0.59966 1523 ft 145 kts 89°
2026-04-23 13:29 51.47704 -0.58331 1337 ft 151 kts 87°
2026-04-23 13:29 51.47711 -0.56736 1131 ft 133 kts 89°
2026-04-23 13:30 51.47718 -0.55335 960 ft 120 kts 89°
2026-04-23 13:30 51.47724 -0.54009 796 ft 118 kts 87°
2026-04-23 13:30 51.47730 -0.52705 644 ft 117 kts 88°
2026-04-23 13:30 51.47737 -0.51395 463 ft 117 kts 88°
2026-04-23 13:31 51.47743 -0.50111 316 ft 115 kts 90°
2026-04-23 13:31 51.47748 -0.48834 163 ft 115 kts 90°
2026-04-23 13:31 51.47754 -0.47635 86 ft 95 kts 90°
2026-04-23 13:31 51.47758 -0.46837 89 ft 52 kts 89°
2026-04-23 13:32 51.47760 -0.46336 88 ft 28 kts 89°
2026-04-23 13:32 51.47687 -0.46124 87 ft 22 kts 146°
2026-04-23 13:32 51.47597 -0.46118 87 ft 13 kts 252°
2026-04-23 13:32 51.47594 -0.46281 86 ft 16 kts 269°
2026-04-23 13:33 51.47593 -0.46471 86 ft 18 kts 270°
2026-04-23 13:33 51.47592 -0.46686 86 ft 20 kts 269°
2026-04-23 13:33 51.47586 -0.46921 88 ft 22 kts 266°
2026-04-23 13:33 51.47582 -0.47177 89 ft 24 kts 270°
2026-04-23 13:34 51.47580 -0.47448 86 ft 25 kts 269°
2026-04-23 13:34 51.47579 -0.47715 87 ft 23 kts 269°
2026-04-23 13:34 51.47580 -0.47953 88 ft 22 kts 270°
2026-04-23 13:34 51.47578 -0.48172 90 ft 19 kts 269°
2026-04-23 13:35 51.47577 -0.48375 86 ft 17 kts 270°
2026-04-23 13:35 51.47513 -0.48485 88 ft 16 kts 206°
2026-04-23 13:35 51.47486 -0.48654 89 ft 17 kts 268°
2026-04-23 13:35 51.47482 -0.48815 87 ft 6 kts 243°
2026-04-23 13:36 51.47431 -0.48830 86 ft 7 kts 180°
2026-04-23 13:36 51.47409 -0.48829 86 ft 0 kts 179°
2026-04-23 13:36 51.47403 -0.48829 86 ft 0 kts 179°